Location: Cabeza de los Veneras
(40.2000°N, 5.2000°W)
Time: 12:12:13
(UTC+00:00)

SJ 16-02 - Pass Details

Date: 18 April 2024
Orbit: 595 x 605 km, 75.0° (Epoch: 22 May)

Event Time Altitude Azimuth Distance (km) Brightness Sun altitude
Rises 19:37:42 0° 339° (NNW) 2,847 5.4 -7.1°
Reaches altitude 10° 19:39:56 10° 337° (NNW) 1,939 4.6 -7.5°
Maximum altitude 19:44:14 68° 255° (WSW) 643 1.7 -8.3°
Drops below altitude 10° 19:48:29 10° 172° (S) 1,922 3.6 -9.0°
Sets 19:50:42 0° 170° (S) 2,820 4.4 -9.4°
